Simultaneous Nadir Overpasses (SNOs) Predictions

Prediction of SNOs between GOES-16 and TERRA Satellite Orbit:

Table of predicted SNOs for the next 14.0 days since TLE Epoch: 10/12/2019
Index Date Time (GOES-16) GOES-16 Lat,Lon TERRA Lat,Lon Distance(km) Time Diff (sec)
1 10/13/2019 03:14:37 -0.01, -75.20 0.73, -71.61 407.31 80
2 10/13/2019 15:35:53 0.01, -75.21 0.33, -76.77 177.92 80
3 10/15/2019 15:26:21 0.01, -75.21 -0.28, -73.81 158.99 80
4 10/16/2019 03:47:45 -0.01, -75.21 -0.84, -79.00 432.15 80
5 10/17/2019 15:14:10 0.01, -75.22 -0.95, -70.87 496.04 80
6 10/18/2019 03:35:34 -0.00, -75.22 -0.17, -76.06 95.10 80
7 10/20/2019 03:20:42 0.00, -75.23 0.45, -73.10 242.07 80
8 10/20/2019 15:41:57 -0.00, -75.24 0.67, -78.25 343.13 80
9 10/22/2019 15:29:46 -0.00, -75.25 -0.01, -75.31 5.92 80
10 10/24/2019 15:20:14 -0.00, -75.27 -0.63, -72.35 332.80 80
11 10/25/2019 03:41:38 0.00, -75.27 -0.48, -77.54 257.69 80




NCC Satellite Simultaneous Nadir Overpasses (SNOs) Prediction Service
